Weather History for Indianapolis, IN

Change the Weather History Date:

Thursday, October 4, 2012

  Actual Average (KEYE) Record (KEYE)
Temperature  
Mean Temperature 64 °F 59 °F  
Max Temperature 78 °F 69 °F 86 °F (2007)
Min Temperature 51 °F 49 °F 39 °F (1996)
Degree Days  
Heating Degree Days 1 7  
Month to date heating degree days 26  
Since 1 July heating degree days 87  
Cooling Degree Days 0 1  
Month to date cooling degree days 4  
Year to date cooling degree days 1047  
Growing Degree Days 14 (Base 50)    
Moisture  
Dew Point 52 °F    
Average Humidity 65    
Maximum Humidity 87    
Minimum Humidity 39    
Precipitation  
Precipitation 0.00 in 0.10 in 0.61 in (2002)
Month to date precipitation 0.42  
Year to date precipitation 31.32  
Sea Level Pressure  
Sea Level Pressure 30.13 in    
Wind  
Wind Speed 6 mph (SSW)    
Max Wind Speed 14 mph    
Max Gust Speed 28 mph    
Visibility 10 miles    
Events      
T = Trace of Precipitation, MM = Missing Value Source: NWS Daily Summary

Daily Weather History Graph

Daily Weather History Graph

Search for Another Location

Airport:

Trip Planner

Search our weather history database for the weather conditions in past years. The results will help you decide how hot, cold, wet, or windy it might be!

Date:

Astronomy

Oct. 04, 2012 Rise Set
Actual Time 7:44 AM EDT 7:21 PM EDT
Civil Twilight 7:17 AM EDT 7:48 PM EDT
Nautical Twilight 6:46 AM EDT 8:20 PM EDT
Astronomical Twilight 6:14 AM EDT 8:51 PM EDT
Moon 9:57 PM EDT (10/4) 12:01 PM EDT (10/4)
Length of Visible Light 12h 30m
Length of Day
11h 36m
Waning Gibbous, 82% of the Moon is Illuminated
Oct 4
Waning Gibbous
Oct 8
Last Quarter
Oct 15
New
Oct 21
First Quarter
Oct 29
Full

Hourly Weather History & Observations

Time (EDT) Temp. Dew Point Humidity Pressure Visibility Wind Dir Wind Speed Gust Speed Precip Events Conditions
12:15 AM 58.3 °F 50.0 °F 74% 30.11 in 10.0 mi South 5.8 mph - N/A   Clear
12:35 AM 58.5 °F 49.8 °F 73% 30.11 in 10.0 mi South 6.9 mph - N/A   Clear
12:55 AM 58.5 °F 49.6 °F 72% 30.11 in 10.0 mi South 5.8 mph - N/A   Clear
1:15 AM 58.1 °F 49.3 °F 72% 30.11 in 10.0 mi South 5.8 mph - N/A   Clear
1:35 AM 57.6 °F 49.1 °F 73% 30.11 in 10.0 mi South 4.6 mph - N/A   Clear
1:55 AM 57.0 °F 49.1 °F 75% 30.12 in 10.0 mi South 4.6 mph - N/A   Clear
2:15 AM 56.3 °F 49.1 °F 77% 30.12 in 10.0 mi SSW 3.5 mph - N/A   Scattered Clouds
2:35 AM 56.5 °F 49.1 °F 76% 30.12 in 10.0 mi SSW 4.6 mph - N/A   Scattered Clouds
2:55 AM 55.0 °F 48.4 °F 78% 30.12 in 10.0 mi SSW 3.5 mph - N/A   Scattered Clouds
3:15 AM 54.5 °F 48.4 °F 80% 30.12 in 10.0 mi South 3.5 mph - N/A   Scattered Clouds
3:35 AM 51.8 °F 46.9 °F 83% 30.12 in 10.0 mi Calm Calm - N/A   Scattered Clouds
3:55 AM 53.4 °F 48.4 °F 83% 30.12 in 10.0 mi South 3.5 mph - N/A   Mostly Cloudy
4:15 AM 53.1 °F 48.4 °F 84% 30.12 in 10.0 mi SSW 3.5 mph - N/A   Scattered Clouds
4:35 AM 52.0 °F 47.7 °F 85% 30.12 in 10.0 mi Calm Calm - N/A   Mostly Cloudy
4:55 AM 51.8 °F 47.7 °F 86% 30.12 in 10.0 mi Calm Calm - N/A   Scattered Clouds
5:15 AM 51.4 °F 47.3 °F 86% 30.13 in 10.0 mi South 3.5 mph - N/A   Clear
5:35 AM 51.4 °F 47.7 °F 87% 30.13 in 10.0 mi South 3.5 mph - N/A   Clear
5:55 AM 52.3 °F 48.4 °F 86% 30.14 in 10.0 mi South 3.5 mph - N/A   Clear
6:15 AM 53.2 °F 48.7 °F 85% 30.14 in 10.0 mi SSW 4.6 mph - N/A   Clear
6:35 AM 52.7 °F 48.2 °F 85% 30.14 in 10.0 mi South 3.5 mph - N/A   Clear
6:55 AM 52.7 °F 48.2 °F 85% 30.15 in 10.0 mi South 4.6 mph - N/A   Scattered Clouds
7:15 AM 52.7 °F 48.4 °F 85% 30.15 in 10.0 mi Calm Calm - N/A   Mostly Cloudy
7:35 AM 54.0 °F 49.3 °F 84% 30.15 in 10.0 mi Calm Calm - N/A   Overcast
7:55 AM 54.1 °F 50.0 °F 86% 30.15 in 10.0 mi South 3.5 mph - N/A   Overcast
8:15 AM 54.9 °F 50.2 °F 84% 30.15 in 10.0 mi South 4.6 mph - N/A   Overcast
8:35 AM 55.4 °F 50.5 °F 84% 30.15 in 10.0 mi South 4.6 mph - N/A   Overcast
8:55 AM 55.4 °F 50.5 °F 84% 30.16 in 10.0 mi South 3.5 mph - N/A   Scattered Clouds
9:15 AM 56.3 °F 51.1 °F 83% 30.16 in 10.0 mi SSW 3.5 mph - N/A   Clear
9:35 AM 59.0 °F 52.3 °F 79% 30.16 in 10.0 mi SSW 5.8 mph - N/A   Clear
9:55 AM 61.5 °F 52.7 °F 73% 30.17 in 10.0 mi SW 6.9 mph - N/A   Clear
10:15 AM 63.5 °F 53.2 °F 69% 30.17 in 10.0 mi SW 10.4 mph - N/A   Clear
10:35 AM 65.5 °F 53.6 °F 65% 30.17 in 10.0 mi SSW 6.9 mph - N/A   Clear
10:55 AM 67.6 °F 54.5 °F 63% 30.18 in 10.0 mi SSW 6.9 mph - N/A   Clear
11:15 AM 68.9 °F 54.1 °F 59% 30.17 in 10.0 mi SW 4.6 mph - N/A   Clear
11:35 AM 70.5 °F 54.3 °F 56% 30.17 in 10.0 mi SW 6.9 mph - N/A   Clear
11:55 AM 71.4 °F 54.9 °F 56% 30.17 in 10.0 mi SW 8.1 mph - N/A   Clear
12:35 PM 73.6 °F 55.2 °F 53% 30.16 in 10.0 mi SSW 9.2 mph - N/A   Clear
12:55 PM 74.7 °F 55.2 °F 51% 30.15 in 10.0 mi SSW 10.4 mph - N/A   Clear
1:15 PM 74.7 °F 54.3 °F 49% 30.15 in 10.0 mi SSW 12.7 mph - N/A   Clear
1:35 PM 75.6 °F 54.3 °F 48% 30.14 in 10.0 mi SW 12.7 mph 19.6 mph N/A   Clear
1:55 PM 76.3 °F 54.1 °F 46% 30.14 in 10.0 mi SW 13.8 mph 20.7 mph N/A   Scattered Clouds
2:15 PM 77.0 °F 52.9 °F 43% 30.13 in 10.0 mi SSW 10.4 mph 18.4 mph N/A   Clear
2:35 PM 75.7 °F 52.9 °F 45% 30.13 in 10.0 mi SW 9.2 mph - N/A   Scattered Clouds
2:55 PM 77.9 °F 50.9 °F 39% 30.12 in 10.0 mi WSW 11.5 mph 20.7 mph N/A   Scattered Clouds
3:15 PM 77.2 °F 51.4 °F 41% 30.12 in 10.0 mi SW 12.7 mph 27.6 mph N/A   Mostly Cloudy
3:35 PM 77.9 °F 51.8 °F 40% 30.12 in 10.0 mi SW 13.8 mph 25.3 mph N/A   Scattered Clouds
3:55 PM 77.9 °F 51.6 °F 40% 30.12 in 10.0 mi SW 13.8 mph 21.9 mph N/A   Scattered Clouds
4:15 PM 75.9 °F 51.3 °F 42% 30.12 in 10.0 mi WSW 13.8 mph 24.2 mph N/A   Scattered Clouds
4:35 PM 75.9 °F 52.7 °F 44% 30.12 in 10.0 mi WSW 11.5 mph 19.6 mph N/A   Scattered Clouds
4:55 PM 77.0 °F 50.7 °F 40% 30.11 in 10.0 mi WSW 13.8 mph 19.6 mph N/A   Scattered Clouds
5:15 PM 77.2 °F 51.1 °F 40% 30.11 in 10.0 mi WSW 11.5 mph 24.2 mph N/A   Clear
5:35 PM 77.0 °F 51.8 °F 41% 30.11 in 10.0 mi SW 12.7 mph 17.3 mph N/A   Scattered Clouds
6:15 PM 75.4 °F 52.2 °F 44% 30.11 in 10.0 mi SW 8.1 mph 12.7 mph N/A   Clear
6:35 PM 74.7 °F 51.8 °F 45% 30.10 in 10.0 mi SW 8.1 mph - N/A   Clear
6:55 PM 72.9 °F 52.7 °F 49% 30.11 in 10.0 mi SSW 5.8 mph - N/A   Clear
7:15 PM 71.4 °F 53.1 °F 52% 30.11 in 10.0 mi SSW 5.8 mph - N/A   Clear
7:35 PM 70.0 °F 53.1 °F 55% 30.12 in 10.0 mi South 5.8 mph - N/A   Clear
7:55 PM 68.0 °F 53.4 °F 60% 30.11 in 10.0 mi South 5.8 mph - N/A   Clear
8:15 PM 67.8 °F 53.2 °F 60% 30.11 in 10.0 mi South 6.9 mph - N/A   Scattered Clouds
8:35 PM 66.7 °F 53.6 °F 63% 30.11 in 10.0 mi South 5.8 mph - N/A   Clear
8:55 PM 67.1 °F 53.8 °F 62% 30.11 in 10.0 mi SSW 6.9 mph - N/A   Clear
9:15 PM 66.6 °F 53.8 °F 63% 30.11 in 10.0 mi South 5.8 mph - N/A   Clear
9:35 PM 65.7 °F 54.0 °F 66% 30.11 in 10.0 mi SSW 5.8 mph - N/A   Clear
9:55 PM 66.0 °F 54.0 °F 65% 30.11 in 10.0 mi South 6.9 mph - N/A   Clear
10:15 PM 65.5 °F 54.5 °F 68% 30.11 in 10.0 mi South 8.1 mph - N/A   Clear
10:35 PM 66.2 °F 54.5 °F 66% 30.11 in 10.0 mi SSW 8.1 mph - N/A   Clear
10:55 PM 66.6 °F 54.5 °F 65% 30.11 in 10.0 mi SSW 9.2 mph - N/A   Clear
11:15 PM 66.6 °F 54.5 °F 65% 30.11 in 10.0 mi SSW 11.5 mph 16.1 mph N/A   Clear
11:35 PM 66.4 °F 54.5 °F 66% 30.11 in 10.0 mi SSW 8.1 mph - N/A   Clear
11:55 PM 64.9 °F 54.7 °F 69% 30.14 in 10.0 mi WNW 8.1 mph - N/A   Mostly Cloudy